Regional Weather Roundup
Issued by NWS Cleveland, OH

Home | Current Version | Previous Version | Graphics & Text | Print | Product List | Glossary On
Versions: 1 2 3 4 5 6 7 8 9 10 11 12 13 14 15 16 17 18 19 20 21 22 23 24 25 26 27 28 29 30 31 32 33 34 35 36 37 38 39 40 41 42 43 44 45 46 47 48 49 50
000
ASUS41 KCLE 300010
RWRCLE
OHIO REGIONAL WEATHER ROUNDUP
NATIONAL WEATHER SERVICE CLEVELAND, OH
700 PM EST THU JAN 29 2015

NOTE: "FAIR" INDICATES FEW OR NO CLOUDS BELOW 12,000 FEET WITH NO
SIGNIFICANT WEATHER AND/OR OBSTRUCTIONS TO VISIBILITY.

OHZ001>008-015>018-024>027-034-035-043-044-300100-
   NORTHWEST OHIO

CITY           SKY/WX    TMP DP  RH WIND       PRES   REMARKS
DEFIANCE       CLOUDY    35  28  75 NW14      30.00R WCI  26
FINDLAY        CLOUDY    34  30  85 NW14      29.95R FOG     WCI  25
TOLEDO EXPRESS CLOUDY    33  28  81 NW10      29.95R WCI  25
TOLEDO EXEC    CLOUDY    33  29  85 NW13      29.96R WCI  24
LIMA           CLOUDY    34  30  85 NW18      29.99R FOG     WCI  23
$$

OHZ009>014-019>023-028>033-038-089-300100-
   NORTHEAST OHIO

CITY           SKY/WX    TMP DP  RH WIND       PRES   REMARKS
CLE-HOPKINS    LGT SNOW  32  29  88 NW15      29.91R FOG     WCI  22
CLE-LAKEFRONT  LGT SNOW  32  30  92 NW20      29.87R FOG     WCI  20
CUY CO. ARPT   LGT SNOW  34  34 100 NW14G23   29.85R VSB 3/4 WCI  24
LORAIN-ELYRIA  LGT SNOW  31  29  92 NW17      29.90R FOG     WCI  19
ASHTABULA      LGT SNOW  32  30  92 W12G21    29.80R FOG     WCI  23
AKRON-CANTON   LGT RAIN  35  32  88 NW20G28   29.82R FOG     WCI  24
WOOSTER        LGT SNOW  33  30  88 NW20      29.87R FOG     WCI  21
MANSFIELD      LGT SNOW  32  29  88 NW18G26   29.90R FOG     WCI  20
YOUNGSTOWN     LGTSLEET  36  34  92 SW14      29.78R FOG
$$

OHZ042-051>053-060>062-070>072-077>081-300100-
  SOUTHWEST OHIO

CITY           SKY/WX    TMP DP  RH WIND       PRES   REMARKS
CINC-COVINGTON DRIZZLE   34  32  93 W13       30.09R FOG     WCI  25
CINC-LUNKEN    CLOUDY    36  31  82 W13       30.10R
HAMILTON       CLOUDY    35  32  88 W12G18    30.09R FOG     WCI  27
DAYTON         CLOUDY    33  31  92 W16       30.04R FOG     WCI  23
WRIGHT-PAT AFB CLOUDY    33  30  90 W20G26    30.03R WCI  21
DAYTON GENERAL CLOUDY    34  30  85 W16G24    30.04R WCI  24
WILMINGTON     CLOUDY    34  28  79 W18G28    30.02R WCI  23
$$

OHZ036-037-039>041-045>050-054>059-063>069-073>076-082>088-300100-
  CENTRAL AND SOUTHEAST OHIO

CITY           SKY/WX    TMP DP  RH WIND       PRES   REMARKS
COLUMBUS       CLOUDY    34  30  85 W23       29.96R WCI  22
OSU AIRPORT    CLOUDY    34  31  88 W18G26    29.96R WCI  23
BOLTON FIELD   CLOUDY    34  32  93 W16       29.98R WCI  23
RICKENBACK AFB CLOUDY    34  32  90 W13G21    29.98R FOG     WCI  25
NEWARK         CLOUDY    36  31  82 W16G23    29.94R
MARION         LGT SNOW  34  30  85 NW16G24   29.95R FOG     WCI  24
LANCASTER      CLOUDY    36  32  85 W18       29.98R
ZANESVILLE     CLOUDY    35  31  85 W17G24    29.91R WCI  25
NEW PHILLY     LGT RAIN  38  34  85 W10G18    29.87R
$$


USA.gov is the U.S. government's official web portal to all federal, state and local government web resources and services.